Date String (YYYY-MM-DD hh:mm:ss) UTC,Instrument flags,Ambient pressure (hPa),Sample flow (lpm),Bypass flow (lpm),Sample temperature (°C),Ambient temperature (°C),ASC tube jacket temperature (°C),LED temperature (°C),Box temperature (°C),Sample RH (%),Span deviation,Mass concentration (μg/m³),Mass concentration (μg/m³),Mass concentration (μg/m³)
DateTimeUTC,F1_M11,P_M11,Q1_M11,Q2_M11,T1_M11,T2_M11,T3_M11,T4_M11,T5_M11,U1_M11,ZSPAN_M11,X2_M11,X0_M11,X1_M11
2021-10-28 11:00:00,,0829.3,5.00,0.00,22.8,22.1,00.0,32.1,24.5,18.5,0000.0,0002.30,0007.56,0001.53
2021-10-28 11:01:00,,0829.2,5.00,0.00,22.8,22.0,00.0,32.0,24.5,18.4,0000.0,0002.26,0007.75,0001.53
2021-10-28 11:02:00,,0829.3,5.00,0.00,22.7,22.0,00.0,32.0,24.5,18.4,0000.0,0002.19,0007.35,0001.51
2021-10-28 11:03:00,,0829.5,5.01,0.00,22.7,22.0,00.0,32.0,24.5,18.3,0000.0,0002.15,0007.20,0001.50
2021-10-28 11:04:00,,0829.5,4.99,0.00,22.7,22.0,00.0,32.0,24.5,18.3,0000.0,0002.15,0007.18,0001.49
2021-10-28 11:05:00,,0829.6,5.01,0.00,22.8,22.1,00.0,32.0,24.6,18.3,0000.0,0002.12,0006.90,0001.49
2021-10-28 11:06:00,,0829.6,5.00,0.00,22.8,22.2,00.0,32.0,24.6,18.2,0000.0,0002.10,0006.06,0001.50
2021-10-28 11:07:00,,0829.6,4.99,0.00,22.8,22.2,00.0,32.0,24.6,18.2,0000.0,0002.13,0005.15,0001.50
2021-10-28 11:08:00,,0829.4,5.00,0.00,22.8,22.2,00.0,32.0,24.6,18.2,0000.0,0002.14,0004.34,0001.51
2021-10-28 11:09:00,,0829.5,5.00,0.00,22.8,22.2,00.0,32.0,24.7,18.2,0000.0,0002.16,0004.44,0001.50
2021-10-28 11:10:00,,0829.5,4.99,0.00,22.8,22.2,00.0,32.0,24.6,18.2,0000.0,0002.15,0004.66,0001.50
2021-10-28 11:11:00,,0829.5,5.01,0.00,22.8,22.1,00.0,32.0,24.6,18.2,0000.0,0002.18,0005.22,0001.49
2021-10-28 11:12:00,,0829.4,5.00,0.00,22.8,22.1,00.0,32.0,24.5,18.2,0000.0,0002.22,0004.79,0001.48
2021-10-28 11:13:00,,0829.4,4.99,0.00,22.8,22.1,00.0,31.9,24.5,18.2,0000.0,0002.20,0004.80,0001.47
2021-10-28 11:14:00,,0829.4,4.99,0.00,22.7,22.0,00.0,31.9,24.5,18.2,0000.0,0002.19,0005.02,0001.48
2021-10-28 11:15:00,,0829.5,5.01,0.00,22.7,22.0,00.0,31.9,24.4,18.2,0000.0,0002.15,0004.95,0001.48
2021-10-28 11:16:00,,0829.5,5.00,0.00,22.7,22.0,00.0,31.9,24.4,18.2,0000.0,0002.21,0005.71,0001.47
2021-10-28 11:17:00,,0829.5,5.00,0.00,22.7,21.9,00.0,31.9,24.4,18.2,0000.0,0002.22,0006.65,0001.48
2021-10-28 11:18:00,,0829.5,5.00,0.00,22.7,21.9,00.0,31.9,24.3,18.1,0000.0,0002.20,0007.37,0001.48
2021-10-28 11:19:00,,0829.5,4.99,0.00,22.6,21.9,00.0,31.9,24.3,18.2,0000.0,0002.21,0007.33,0001.49
2021-10-28 11:20:00,,0829.5,5.01,0.00,22.6,21.9,00.0,31.9,24.3,18.2,0000.0,0002.26,0007.49,0001.50
2021-10-28 11:21:00,,0829.6,4.99,0.00,22.6,21.9,00.0,31.8,24.3,18.2,0000.0,0002.23,0007.46,0001.49
2021-10-28 11:22:00,,0829.6,5.00,0.00,22.6,21.8,00.0,31.8,24.3,18.2,0000.0,0002.19,0006.98,0001.49
2021-10-28 11:23:00,,0829.6,5.00,0.00,22.6,21.9,00.0,31.8,24.3,18.3,0000.0,0002.17,0006.81,0001.49
2021-10-28 11:24:00,,0829.5,4.98,0.00,22.6,21.9,00.0,31.8,24.3,18.2,0000.0,0002.23,0007.09,0001.50
2021-10-28 11:25:00,,0829.6,5.01,0.00,22.6,21.9,00.0,31.8,24.4,18.2,0000.0,0002.26,0007.38,0001.51
2021-10-28 11:26:00,,0829.6,5.00,0.00,22.6,21.9,00.0,31.8,24.4,18.2,0000.0,0002.31,0008.09,0001.52
2021-10-28 11:27:00,,0829.6,5.00,0.00,22.6,21.9,00.0,31.8,24.3,18.2,0000.0,0002.30,0007.87,0001.52
2021-10-28 11:28:00,,0829.6,5.00,0.00,22.6,21.9,00.0,31.8,24.3,18.2,0000.0,0002.26,0007.61,0001.52
2021-10-28 11:29:00,,0829.6,4.99,0.00,22.6,21.9,00.0,31.8,24.3,18.2,0000.0,0002.24,0006.78,0001.51
2021-10-28 11:30:00,,0829.6,5.02,0.00,22.5,21.9,00.0,31.7,24.3,18.2,0000.0,0002.23,0006.80,0001.52
2021-10-28 11:31:00,,0829.5,5.00,0.00,22.5,21.9,00.0,31.7,24.3,18.2,0000.0,0002.19,0006.56,0001.51
2021-10-28 11:32:00,,0829.6,4.99,0.00,22.5,21.9,00.0,31.7,24.3,18.2,0000.0,0002.20,0006.36,0001.52
2021-10-28 11:33:00,,0829.6,5.01,0.00,22.5,21.8,00.0,31.7,24.2,18.2,0000.0,0002.24,0006.39,0001.54
2021-10-28 11:34:00,,0829.5,4.99,0.00,22.5,21.8,00.0,31.7,24.2,18.2,0000.0,0002.25,0006.88,0001.55
2021-10-28 11:35:00,,0829.6,5.01,0.00,22.5,21.8,00.0,31.7,24.2,18.2,0000.0,0002.17,0006.57,0001.55
2021-10-28 11:36:00,,0829.5,4.99,0.00,22.5,21.8,00.0,31.7,24.3,18.2,0000.0,0002.12,0005.97,0001.53
2021-10-28 11:37:00,,0829.6,5.00,0.00,22.5,21.8,00.0,31.7,24.3,18.1,0000.0,0002.13,0004.79,0001.53
2021-10-28 11:38:00,,0829.6,5.00,0.00,22.5,21.8,00.0,31.7,24.3,18.1,0000.0,0002.15,0005.26,0001.53
2021-10-28 11:39:00,,0829.5,4.99,0.00,22.5,21.8,00.0,31.7,24.3,18.1,0000.0,0002.18,0006.15,0001.54
2021-10-28 11:40:00,,0829.6,4.99,0.00,22.5,21.8,00.0,31.7,24.3,18.1,0000.0,0002.18,0005.92,0001.53
2021-10-28 11:41:00,,0829.6,5.00,0.00,22.5,21.8,00.0,31.6,24.3,18.1,0000.0,0002.17,0006.55,0001.52
2021-10-28 11:42:00,,0829.6,5.01,0.00,22.5,21.8,00.0,31.6,24.2,18.1,0000.0,0002.15,0006.69,0001.51
2021-10-28 11:43:00,,0829.6,5.00,0.00,22.4,21.8,00.0,31.6,24.2,18.1,0000.0,0002.14,0007.25,0001.51
2021-10-28 11:44:00,,0829.6,4.99,0.00,22.4,21.8,00.0,31.6,24.2,18.1,0000.0,0002.14,0007.81,0001.51
2021-10-28 11:45:00,,0829.6,5.01,0.00,22.4,21.7,00.0,31.6,24.2,18.1,0000.0,0002.12,0008.25,0001.50
2021-10-28 11:46:00,,0829.6,5.00,0.00,22.4,21.7,00.0,31.6,24.2,18.1,0000.0,0002.19,0008.30,0001.50
2021-10-28 11:47:00,,0829.6,5.00,0.00,22.4,21.7,00.0,31.6,24.1,18.1,0000.0,0002.28,0008.50,0001.50
2021-10-28 11:48:00,,0829.8,5.00,0.00,22.4,21.7,00.0,31.6,24.1,18.1,0000.0,0002.28,0009.08,0001.52
2021-10-28 11:49:00,,0829.7,5.00,0.00,22.4,21.7,00.0,31.6,24.1,18.1,0000.0,0002.28,0009.66,0001.52
2021-10-28 11:50:00,,0829.8,4.99,0.00,22.4,21.7,00.0,31.6,24.1,18.1,0000.0,0002.29,0008.93,0001.52
2021-10-28 11:51:00,,0829.7,5.01,0.00,22.4,21.7,00.0,31.6,24.1,18.1,0000.0,0002.29,0009.14,0001.53
2021-10-28 11:52:00,,0829.8,5.01,0.00,22.3,21.6,00.0,31.5,24.1,18.1,0000.0,0002.28,0009.18,0001.53
2021-10-28 11:53:00,,0829.9,4.99,0.00,22.3,21.6,00.0,31.5,24.1,18.1,0000.0,0002.32,0009.17,0001.54
2021-10-28 11:54:00,,0829.8,5.01,0.00,22.3,21.6,00.0,31.5,24.1,18.1,0000.0,0002.35,0008.88,0001.54
2021-10-28 11:55:00,,0829.8,5.00,0.00,22.3,21.6,00.0,31.5,24.1,18.1,0000.0,0002.33,0008.45,0001.54
2021-10-28 11:56:00,,0829.8,5.01,0.00,22.3,21.6,00.0,31.5,24.0,18.1,0000.0,0002.33,0007.74,0001.52
2021-10-28 11:57:00,,0829.7,4.99,0.00,22.3,21.6,00.0,31.5,24.0,18.1,0000.0,0002.27,0007.68,0001.52
2021-10-28 11:58:00,,0829.7,4.99,0.00,22.3,21.6,00.0,31.5,24.0,18.0,0000.0,0002.20,0007.55,0001.52
2021-10-28 11:59:00,,0829.7,5.01,0.00,22.3,21.6,00.0,31.5,24.0,18.1,0000.0,0002.17,0006.52,0001.51
